Regional Weather Roundup
Issued by NWS

Home | Current Version | Previous Version | Text Only | Print | Product List | Glossary Off
Versions: 1 2 3 4 5 6 7 8 9 10 11 12 13 14 15 16 17 18 19 20 21 22 23 24 25 26 27 28 29 30 31 32 33 34 35 36 37 38 39 40 41 42 43 44 45 46 47 48 49 50

000
ASUS43 KLOT 200706
RWRIL

ILLINOIS REGIONAL WEATHER ROUNDUP
NATIONAL WEATHER SERVICE CHICAGO/ROMEOVILLE IL
200 AM CDT SAT SEP 20 2014

NOTE: "FAIR" INDICATES FEW OR NO CLOUDS BELOW 12,000 FEET WITH NO
SIGNIFICANT WEATHER AND/OR OBSTRUCTIONS TO VISIBILITY.

* THESE STATIONS ARE NOT UNDER NWS QUALITY CONTROL. THEY ALSO MAY NOT
  REPORT WEATHER SUCH AS PRECIPITATION OR FOG.

ILZ001-002-007-009-015-016-024-200800-
NORTHWEST ILLINOIS

CITY           SKY/WX    TMP DP  RH WIND       PRES   REMARKS
MOLINE         PTCLDY    65  57  75 SW6       29.92R
STERLING*      PTCLDY    61  55  82 CALM      29.93S
SAVANNA*       MOCLDY    61  55  82 SE6       29.90F
$$

ILZ003-004-008-010-011-017-018-200800-
NORTH CENTRAL ILLINOIS

CITY           SKY/WX    TMP DP  RH WIND       PRES   REMARKS
ROCKFORD       PTCLDY    60  53  77 S8        29.94R
FREEPORT*      MOCLDY    63  58  84 SW12      29.92F
ROCHELLE*      CLEAR     58  53  83 S7        29.94R
DE KALB*       CLEAR     55  51  87 S8        29.96R
PERU*          CLEAR     60  54  80 S7        29.96R
$$

ILZ005-006-012>014-019>023-200800-
NORTHEAST ILLINOIS

CITY           SKY/WX    TMP DP  RH WIND       PRES   REMARKS
CHICAGO-OHARE  PTCLDY    64  50  60 SW9G20    29.94R
CHICAGO-MIDWAY PTCLDY    64  52  64 SW12      29.96R
AURORA         CLEAR     57  50  77 S5        29.96R
LANSING*       CLEAR     59  52  76 SW7       29.97R
JOLIET*        CLEAR     62  50  66 SW6       29.97R
WAUKEGAN       CLEAR     63  50  62 SW14G22   29.91R
DUPAGE AIRPORT CLEAR     61  51  70 S12       29.94R
KANKAKEE*      CLEAR     57  52  85 S5        29.97R
WHEELING       CLEAR     65  50  58 S13       29.94R
MORRIS*        CLEAR     55  52  91 S5        29.96R
ROMEOVILLE*    CLEAR     56  51  84 S6        29.96R
NORTHERLY ISL    N/A     65  49  56 SW10        N/A
$$

LMZ740>746-200800-
SOUTHERN LAKE MICHIGAN

STATION/POSITION SKY/WX   TEMP    WIND        PRES    VSBY  WAVE
                          AIR SEA DIR/SP/G                  HT/PER
                          (F)     (DEG/KT/KT) (MB)    (MI)  (FT/S)
SOUTHERN BUOY              65 64  200/ 21/ 25 1012.3R         4/ 5
WAUKEGAN HARBOR            66     240/ 14/ 18   N/A
HARRISON CRIB              65     200/ 17/ 22   N/A
BURNHAM HARBOR             65     190/ 11/ 14   N/A
CALUMET HARBOR             64     210/  8/ 14 1013.3R
MICHIGAN CITY              62     170/ 12/ 17   N/A
MICHIGAN CITY 6N           65 65  210/ 12/ 16   N/A           2/ 3
ST. JOSEPH                 64 65  170/ 14/ 17   N/A           3/ 3
$$

ILZ025>027-034>036-040-047-049-050-058-095>099-200800-
WEST-CENTRAL ILLINOIS

CITY           SKY/WX    TMP DP  RH WIND       PRES   REMARKS
QUINCY         CLEAR     63  58  83 S9        29.95R
GALESBURG*     CLEAR     61  58  90 S8        29.95R
MACOMB*        CLEAR     62  58  87 S8        29.97R
JACKSONVILLE*  CLEAR     65  59  81 S6        29.98R
PITTSFIELD*    CLEAR     63  58  85 S3        29.98R
$$

ILZ028>032-037-038-041>044-048-051>054-059>061-200800-
CENTRAL ILLINOIS

CITY           SKY/WX    TMP DP  RH WIND       PRES   REMARKS
PONTIAC        CLEAR     61  54  77 S7        29.96R
DECATUR        CLEAR     61  54  77 S10       29.99F
PEORIA         CLEAR     63  54  72 S10       29.96R
LACON*         CLEAR     61  54  76 SW3       29.95R
LINCOLN*       CLEAR     59  54  83 S3        29.96R
SPRINGFIELD    CLEAR     65  56  72 S8        29.98R
TAYLORVILLE    CLEAR     57  54  88 S7        29.98F
$$

ILZ033-039-045-046-055>057-062-063-200800-
EAST-CENTRAL ILLINOIS

CITY           SKY/WX    TMP DP  RH WIND       PRES   REMARKS
CHAMPAIGN      CLEAR     59  53  80 S10       29.99F
DANVILLE*      CLEAR     55  52  88 S6        29.97F
RANTOUL*       CLEAR     56  51  84 S6        29.99S
MATTOON        CLEAR     60  54  80 S8        29.99F
PARIS*         CLEAR     54  53  97 S3        30.02S
$$

ILZ079-100>102-200800-
SOUTHWEST ILLINOIS

CITY           SKY/WX    TMP DP  RH WIND       PRES   REMARKS
ALTON          CLEAR     58  56  94 SE5       29.99F
BELLEVILLE     CLEAR     58  58  99 CALM      29.99F FOG
CAHOKIA*       CLEAR     58  57  97 CALM      29.99F
SPARTA*        CLEAR     57  56  95 CALM      30.02S
$$

ILZ064>066-069>071-074>076-080>082-084>086-088>090-092>094-200800-
SOUTH-CENTRAL ILLINOIS

CITY           SKY/WX    TMP DP  RH WIND       PRES   REMARKS
CARBONDALE     CLEAR     57  55  93 CALM      30.02F FOG
CAIRO*         CLEAR     60  58  92 CALM      30.03S FOG
EFFINGHAM*     CLEAR     56  52  88 SE5       30.00F
MARION         CLEAR     63  59  88 CALM      30.02F
MT. VERNON     CLEAR     54  48  82 CALM      30.02F
CENTRALIA*     CLEAR     55  52  91 SE3       30.00F
SALEM*         CLEAR     57  56  97 SE3       30.01F
METROPOLIS*    CLEAR     58  58 100 CALM      30.03S FOG
$$

ILZ067-068-072-073-078-083-087-091-200800-
SOUTHEAST ILLINOIS

CITY           SKY/WX    TMP DP  RH WIND       PRES   REMARKS
LAWRENCEVILLE  CLEAR     54  53  97 CALM      30.02F FOG
FLORA*         CLEAR     53  52  97 CALM      30.02S
FAIRFIELD*     CLEAR    N/A N/A N/A CALM      30.02S FOG
HARRISBURG*    CLEAR     56  56 100 CALM      30.03F FOG
ROBINSON*      CLEAR     52  52  99 CALM      30.03F FOG
CARMI*         CLEAR     56  56 100 CALM      30.02F FOG
$$

ABBREVIATIONS USED IN REMARKS
   TC - TEMPERATURE IN CELSIUS
  WCI - WIND CHILL INDEX
   HX - HEAT INDEX
  VSB - VISIBILITY
$$




USA.gov is the U.S. government's official web portal to all federal, state and local government web resources and services.